Wind_Speed
43 44 46 47 49 49 49 49 51 52 53 53 53 53 53 53 53 54 54 54 53 54 55 54 53 52 52 52 52 51 51 51 51 50 50 49 48 49 50 50 50 49 48
42 43 44 45 47 49 49 50 51 51 52 52 52 52 52 52 53 53 53 53 52 53 54 54 54 53 52 52 52 52 52 52 52 51 51 50 50 50 50 50 50 51 51
41 43 43 44 45 47 48 48 49 49 49 50 50 51 52 52 53 53 54 53 53 53 53 53 54 53 53 53 53 53 53 53 53 52 52 51 51 51 51 51 51 51 51
40 42 42 44 45 46 46 47 48 48 48 49 50 51 52 52 53 53 53 53 53 53 53 53 54 54 54 54 54 54 54 54 54 54 53 52 52 52 52 52 53 53 52
40 41 41 43 43 44 45 46 47 48 48 48 49 50 51 52 52 53 54 54 53 53 53 53 53 54 54 54 54 54 55 55 55 55 55 54 53 54 54 55 55 54 54
39 39 40 41 42 42 44 45 46 47 47 48 49 50 50 50 51 53 54 54 54 54 54 54 53 54 55 55 55 55 55 55 55 55 56 55 55 55 55 56 55 55 54
39 39 39 41 42 42 43 44 45 47 47 47 47 48 48 49 51 53 54 54 54 54 53 54 54 54 55 56 56 56 55 55 56 55 55 55 55 56 56 56 56 55 55
39 39 40 42 42 43 43 44 45 46 48 48 48 47 47 47 48 49 51 52 53 53 52 53 53 54 55 56 56 56 55 54 55 55 54 54 54 55 55 55 56 56 56
39 40 41 41 42 43 43 43 44 44 45 46 47 47 47 47 47 47 49 50 50 50 51 52 52 52 52 53 54 55 54 54 54 54 54 54 53 53 54 54 55 55 55
39 40 41 41 41 41 41 42 43 43 43 43 44 45 46 46 47 47 47 48 49 49 49 49 49 49 49 51 52 53 53 53 54 54 54 54 53 53 54 53 54 54 54
37 38 39 39 39 40 40 41 42 42 42 43 43 44 45 45 46 46 47 48 48 48 49 49 49 50 50 50 51 52 52 52 53 53 53 54 54 53 53 53 53 53 54
34 35 36 37 38 38 39 39 40 41 41 42 42 43 44 45 45 45 46 47 48 48 48 48 48 49 50 50 50 50 51 52 52 53 53 54 54 53 53 53 53 53 54
33 34 34 35 36 36 37 39 40 40 41 42 43 43 44 44 45 46 46 47 47 48 48 48 48 49 50 50 51 50 51 52 53 53 53 53 53 53 53 53 54 54 54
33 33 32 32 33 34 35 36 37 39 40 41 42 43 44 45 45 46 46 46 45 46 46 46 47 47 48 49 49 50 49 49 50 50 51 51 52 52 52 52 53 53 53
34 33 33 32 32 33 34 35 37 38 39 41 42 43 44 44 45 45 45 45 45 46 46 46 46 46 47 47 48 48 48 48 48 49 49 50 50 50 50 51 51 51 51
34 34 33 33 33 34 34 35 36 37 38 39 41 41 42 43 44 44 44 44 44 44 45 45 45 46 46 47 47 47 47 47 47 48 49 49 49 49 49 49 49 49 49
34 34 34 34 34 34 35 35 36 37 38 39 39 40 40 41 41 42 43 43 43 44 44 44 44 45 45 45 46 46 46 46 46 46 47 47 47 47 47 47 47 47 48
33 33 33 33 33 34 35 35 36 37 37 38 38 39 39 39 40 41 41 42 42 43 43 43 43 43 44 44 45 45 45 45 46 46 46 46 46 46 46 46 46 46 46
32 32 32 32 32 32 33 34 35 35 36 36 36 37 37 38 38 39 39 40 41 42 42 43 43 43 43 44 44 44 45 45 46 46 46 46 45 45 45 45 45 44 44
30 30 30 30 31 31 32 32 32 32 32 32 33 34 34 34 34 35 36 37 38 39 40 41 41 42 42 43 43 43 44 45 45 45 44 44 44 44 44 44 44 44 43
29 29 29 29 30 30 30 30 30 30 30 30 31 31 31 31 31 32 33 34 35 36 37 39 40 40 41 42 42 42 42 42 42 42 43 43 43 43 43 43 44 43 43
27 27 28 28 28 28 29 29 28 28 28 28 28 28 29 29 30 31 32 32 33 34 35 36 37 38 38 38 38 38 39 39 40 40 40 41 42 41 41 41 41 42 41
25 26 26 27 27 27 27 27 26 26 26 27 27 27 27 28 29 30 31 31 32 33 34 35 36 36 36 36 36 36 36 37 37 38 39 39 40 40 40 40 40 40 40
25 25 26 26 26 26 26 26 26 26 26 26 26 27 27 28 28 29 30 30 31 32 33 34 34 35 35 35 35 35 35 36 36 36 37 38 39 39 39 38 39 39 39
26 26 26 26 26 25 25 25 25 25 25 26 26 26 27 27 27 28 29 30 30 31 31 31 32 32 33 34 34 34 35 35 35 36 36 36 36 37 37 37 38 38 38
25 26 26 26 26 25 25 24 24 24 24 25 25 26 26 26 26 27 28 28 28 29 29 30 31 31 31 32 32 32 33 33 34 34 34 34 34 35 35 36 36 36 36
Wind_Direction
257 256 256 256 256 256 257 257 255 254 254 254 254 255 253 254 254 254 254 254 254 253 252 252 252 253 255 256 257 257 257 258 259 259 259 260 260 261 261 263 264 264 265
259 258 258 257 257 257 258 258 258 256 255 255 254 253 252 252 253 254 254 253 253 252 252 251 252 254 255 256 257 257 257 258 259 260 260 261 261 262 262 263 264 265 266
262 260 260 259 258 258 258 258 258 257 254 254 253 253 252 253 254 254 253 252 252 252 252 252 253 254 255 256 257 258 258 259 259 260 260 261 261 261 262 263 264 266 268
265 263 262 260 260 259 258 257 256 255 254 254 254 254 254 254 254 254 253 252 252 252 253 253 253 254 255 256 258 259 259 260 260 260 260 261 261 261 261 262 264 266 266
267 265 263 262 262 260 259 258 256 255 254 254 254 255 255 255 254 253 252 252 252 253 253 254 254 255 256 257 258 259 260 260 260 261 261 261 262 262 262 263 263 264 265
268 265 264 264 263 262 262 260 257 256 255 256 256 256 255 255 254 252 252 252 253 253 254 255 255 256 256 257 258 259 259 260 260 261 261 261 262 263 263 264 264 264 264
267 265 264 264 264 264 263 262 259 257 256 256 257 256 256 256 255 253 252 253 253 254 255 255 256 256 257 257 258 259 260 260 260 261 261 262 262 262 263 263 263 263 264
267 266 266 264 264 264 264 263 262 260 257 256 256 257 256 255 254 254 253 252 253 254 254 255 256 256 257 257 258 258 259 260 260 261 261 262 262 262 263 263 263 264 265
269 267 266 266 265 264 263 263 262 260 258 257 256 256 256 256 255 255 254 253 254 254 254 256 257 257 258 257 258 259 259 260 260 260 261 261 262 263 264 264 265 266 266
273 271 269 267 266 265 263 262 262 261 259 258 258 257 256 255 254 255 255 255 254 254 255 256 257 257 259 260 260 260 259 260 260 261 261 262 263 264 265 266 267 267 268
276 274 271 269 267 265 264 263 262 261 260 259 258 257 256 255 255 256 257 256 256 255 255 255 256 258 259 260 261 260 260 259 260 261 262 263 264 265 266 267 268 268 269
277 276 273 270 268 266 265 264 263 262 261 260 259 258 257 257 256 256 257 258 258 257 256 256 257 258 259 260 261 261 261 260 260 261 261 262 264 265 266 267 268 269 269
277 276 275 273 271 269 266 265 264 263 261 260 260 259 258 258 257 257 258 259 259 258 257 257 257 259 260 261 261 261 262 262 262 261 262 262 263 264 265 267 268 269 270
277 276 275 273 271 269 267 266 265 265 263 263 263 261 260 259 258 259 259 260 259 258 257 257 258 259 260 260 261 261 261 262 262 262 262 262 263 264 265 266 268 268 268
277 276 275 275 273 271 268 266 266 266 265 265 265 263 261 260 259 259 259 260 260 259 258 257 258 259 260 261 261 262 262 262 262 262 262 262 263 265 266 266 267 267 267
278 276 275 275 274 272 271 269 269 269 268 267 266 265 262 261 260 259 260 260 260 260 259 258 258 259 260 261 262 262 262 262 262 262 262 263 264 265 266 266 266 266 266
278 276 275 274 275 274 272 271 270 270 270 269 268 267 265 263 261 260 260 260 260 260 260 259 260 260 261 261 262 262 262 263 262 262 263 264 265 266 267 267 266 266 267
279 278 276 275 275 275 273 273 273 272 271 270 269 268 266 264 263 261 261 261 261 261 260 260 260 261 262 262 262 262 262 262 262 263 265 265 265 266 266 267 267 267 267
280 280 278 277 277 277 276 276 275 275 273 271 270 269 267 266 265 264 263 262 261 260 260 260 260 261 262 263 263 263 263 263 263 264 265 266 266 266 266 266 266 267 268
281 281 281 279 279 279 279 278 277 276 275 273 271 271 269 267 267 266 265 264 262 261 260 260 261 262 263 263 264 265 264 264 264 263 263 264 265 266 265 266 266 267 269
281 281 282 282 281 281 280 279 278 277 276 274 273 271 269 268 267 267 267 266 265 264 264 263 263 264 264 264 265 265 264 263 263 263 264 264 265 265 266 266 266 268 268
282 282 283 283 283 282 281 279 278 277 276 275 273 272 270 269 268 267 267 267 267 267 266 266 266 266 266 266 265 264 263 263 263 263 264 265 265 266 266 266 266 267 268
283 283 284 285 285 284 282 280 279 278 276 275 274 273 272 271 270 269 268 269 269 269 268 268 267 266 266 265 265 264 264 264 263 263 264 265 265 265 265 266 266 267 268
286 286 285 286 286 285 284 282 280 279 278 277 276 275 274 273 272 271 271 271 272 272 271 270 269 267 265 265 265 265 265 264 265 265 266 266 266 265 265 266 267 268 269
288 288 288 287 286 285 284 284 283 281 280 278 277 277 276 276 275 274 273 273 274 273 273 271 270 269 267 266 266 266 266 266 266 267 268 268 267 266 267 268 268 268 270
290 290 290 289 287 286 286 286 286 285 283 281 279 278 278 277 277 276 276 275 274 274 274 274 273 271 269 268 268 268 267 267 268 268 268 267 268 268 269 269 269 269 270
Height
5585 5586 5588 5590 5592 5594 5596 5598 5600 5602 5604 5606 5608 5610 5613 5615 5618 5621 5623 5626 5629 5632 5635 5638 5641 5644 5647 5649 5651 5653 5656 5658 5661 5664 5666 5667 5668 5669 5671 5672 5673 5674 5675
5573 5574 5576 5577 5579 5580 5582 5584 5585 5587 5589 5591 5594 5596 5599 5601 5604 5607 5610 5612 5615 5618 5621 5624 5628 5630 5633 5636 5638 5640 5642 5645 5647 5650 5652 5654 5655 5656 5657 5658 5659 5661 5661
5562 5563 5564 5565 5566 5567 5569 5570 5571 5573 5575 5577 5579 5582 5585 5588 5590 5593 5596 5598 5602 5605 5608 5611 5614 5616 5619 5622 5624 5626 5628 5631 5633 5635 5638 5640 5641 5642 5643 5645 5646 5646 5647
5550 5551 5552 5553 5554 5554 5555 5556 5558 5559 5561 5563 5566 5568 5570 5573 5576 5578 5581 5585 5588 5591 5594 5597 5599 5602 5605 5608 5610 5612 5614 5616 5618 5620 5623 5625 5626 5628 5629 5631 5632 5632 5633
5539 5539 5540 5540 5541 5542 5542 5543 5544 5546 5547 5549 5551 5554 5556 5558 5561 5564 5567 5570 5573 5577 5580 5582 5585 5588 5590 5593 5595 5597 5599 5601 5603 5605 5608 5610 5611 5613 5615 5616 5617 5618 5618
5527 5527 5527 5528 5528 5529 5529 5530 5531 5532 5534 5536 5538 5540 5542 5544 5546 5548 5551 5555 5558 5562 5565 5568 5570 5573 5575 5577 5580 5582 5584 5586 5588 5590 5592 5594 5596 5597 5598 5599 5601 5602 5604
5515 5515 5516 5516 5516 5517 5517 5517 5518 5519 5521 5522 5524 5526 5528 5530 5532 5533 5536 5539 5543 5546 5550 5553 5555 5558 5560 5562 5564 5566 5568 5570 5572 5574 5576 5578 5580 5581 5582 5583 5584 5585 5587
5503 5503 5504 5504 5504 5504 5504 5505 5505 5506 5508 5509 5511 5513 5515 5516 5517 5519 5521 5524 5528 5532 5535 5537 5540 5542 5544 5546 5548 5550 5553 5554 5556 5559 5561 5563 5563 5563 5565 5566 5567 5569 5570
5492 5492 5491 5491 5491 5491 5492 5492 5492 5493 5494 5496 5497 5499 5501 5503 5504 5505 5507 5510 5514 5518 5520 5523 5525 5527 5529 5530 5533 5536 5538 5539 5540 5542 5544 5546 5547 5548 5548 5550 5551 5552 5554
5480 5479 5478 5478 5478 5478 5479 5479 5479 5480 5481 5483 5484 5485 5487 5489 5491 5492 5494 5497 5501 5504 5506 5508 5510 5512 5514 5514 5517 5520 5523 5524 5525 5527 5528 5530 5531 5532 5533 5534 5535 5536 5537
5468 5466 5465 5465 5465 5465 5466 5466 5467 5467 5468 5470 5471 5473 5474 5476 5478 5479 5480 5483 5486 5489 5491 5494 5496 5497 5499 5500 5502 5504 5507 5508 5510 5511 5513 5514 5516 5517 5518 5518 5519 5519 5520
5456 5455 5453 5453 5452 5452 5453 5453 5453 5454 5455 5457 5458 5459 5461 5462 5464 5465 5467 5469 5471 5474 5477 5480 5481 5483 5485 5486 5487 5489 5491 5492 5494 5496 5497 5499 5500 5501 5502 5502 5503 5503 5504
5446 5444 5442 5441 5440 5440 5440 5440 5441 5442 5443 5444 5445 5446 5448 5449 5451 5452 5453 5455 5457 5459 5462 5465 5467 5469 5470 5471 5473 5474 5475 5476 5478 5480 5482 5483 5484 5485 5486 5487 5487 5488 5488
5435 5434 5432 5431 5429 5429 5428 5429 5429 5430 5430 5431 5432 5433 5435 5436 5437 5438 5440 5441 5443 5445 5447 5450 5452 5453 5455 5457 5458 5459 5460 5461 5463 5464 5466 5468 5469 5469 5470 5471 5472 5472 5473
5425 5424 5422 5420 5419 5418 5418 5418 5418 5418 5418 5419 5419 5420 5421 5423 5424 5425 5426 5428 5430 5431 5433 5435 5437 5439 5441 5442 5444 5445 5446 5447 5448 5449 5451 5452 5453 5454 5455 5455 5456 5456 5457
5415 5413 5412 5410 5409 5408 5407 5407 5406 5406 5406 5406 5406 5407 5408 5410 5411 5412 5413 5414 5416 5417 5419 5421 5424 5425 5427 5429 5430 5431 5432 5433 5433 5435 5436 5437 5438 5439 5440 5440 5441 5441 5442
5404 5403 5401 5400 5399 5397 5396 5396 5396 5395 5394 5394 5394 5394 5395 5396 5397 5398 5399 5400 5402 5403 5405 5408 5410 5412 5413 5414 5416 5417 5418 5419 5419 5420 5422 5423 5424 5425 5425 5426 5426 5427 5427
5393 5392 5391 5389 5388 5387 5386 5385 5384 5384 5384 5383 5382 5382 5382 5383 5383 5385 5386 5387 5389 5390 5392 5394 5396 5398 5399 5400 5401 5403 5404 5405 5405 5406 5407 5408 5409 5410 5411 5412 5412 5413 5413
5383 5382 5380 5379 5377 5376 5375 5374 5373 5373 5372 5372 5371 5371 5370 5370 5371 5372 5373 5374 5376 5378 5379 5381 5383 5384 5385 5386 5387 5388 5389 5390 5391 5392 5393 5394 5395 5396 5397 5398 5398 5398 5399
5373 5372 5370 5369 5368 5366 5365 5364 5363 5362 5361 5361 5360 5360 5359 5359 5359 5360 5361 5362 5363 5365 5367 5368 5370 5371 5372 5373 5374 5374 5375 5376 5377 5378 5379 5380 5381 5382 5383 5384 5384 5385 5385
5364 5363 5361 5360 5358 5357 5356 5354 5353 5352 5351 5351 5350 5349 5349 5349 5349 5350 5351 5351 5352 5354 5355 5356 5357 5358 5359 5359 5360 5361 5362 5363 5364 5365 5365 5366 5367 5368 5369 5370 5370 5371 5371
5355 5354 5352 5351 5349 5348 5346 5345 5344 5343 5342 5341 5341 5340 5340 5340 5340 5341 5341 5342 5342 5343 5344 5345 5345 5346 5346 5347 5347 5348 5349 5350 5351 5352 5352 5353 5354 5355 5356 5356 5357 5357 5358
5347 5345 5344 5343 5341 5339 5338 5337 5335 5334 5334 5333 5332 5332 5331 5331 5331 5332 5332 5333 5333 5333 5333 5334 5334 5334 5334 5335 5335 5336 5337 5338 5338 5339 5340 5341 5341 5342 5343 5343 5344 5344 5345
5339 5337 5336 5334 5333 5331 5330 5328 5327 5326 5325 5325 5324 5323 5323 5323 5323 5323 5323 5323 5323 5323 5323 5323 5323 5323 5323 5324 5324 5324 5325 5326 5326 5327 5328 5328 5329 5329 5330 5331 5332 5332 5333
5331 5329 5328 5326 5325 5323 5322 5320 5319 5318 5317 5316 5315 5315 5315 5315 5314 5314 5314 5314 5313 5313 5313 5312 5312 5312 5312 5312 5313 5313 5313 5314 5315 5315 5316 5316 5317 5317 5318 5319 5319 5320 5320
5323 5321 5320 5318 5317 5315 5314 5312 5311 5310 5309 5308 5307 5307 5307 5306 5306 5305 5305 5304 5304 5303 5303 5302 5302 5302 5301 5301 5301 5302 5302 5303 5303 5304 5304 5305 5305 5306 5306 5307 5307 5308 5308